User: anonymous   Login
Location: ???????
(55.4362°N, 38.1183°E)
Time: 06:35:38
(UTC+00:00)
Language:

Cosmos 990 Rocket - Orbit

View from above orbital plane
View from above orbital plane
View from above satellite
View from above satellite

Ground track
Ground track

The orbit data is extracted from the following two-line orbital elements,

1 10677U 78019B   21263.30530743  .00000007  00000-0  10534-4 0  9999
2 10677  74.0376 306.0113 0015517 352.5787   7.5135 14.40199180286194
Epoch (UTC): 20 September 2021 07:19:38
Eccentricity: 0.0015517
inclination: 74.0376°
perigee height: 747 km
apogee height: 769 km
right ascension of ascending node: 306.0113°
argument of perigee: 352.5787°
revolutions per day: 14.40199180
mean anomaly at epoch: 7.5135°
orbit number at epoch: 28619

The dashed part of the orbit path shows where the satellite is in the earth's shadow,  

DLR